Time,TemperatureF,DewpointF,PressureIn,WindDirection,WindDirectionDegrees,WindSpeedMPH,WindSpeedGustMPH,Humidity,HourlyPrecipIn,Conditions,Clouds,dailyrainin,SoftwareType,DateUTC
2013-05-30 00:02:00,59.0,-99.9,29.95,WNW,287,7.0,12.0,-999,-99.99,,,-99.99,,2013-05-30 07:02:00,
2013-05-30 00:22:00,59.0,-99.9,29.95,West,266,6.0,9.0,-999,-99.99,,,-99.99,,2013-05-30 07:22:00,
2013-05-30 00:32:00,59.0,-99.9,29.96,West,278,5.0,7.0,-999,-99.99,,,-99.99,,2013-05-30 07:32:00,
2013-05-30 00:42:00,58.0,-99.9,29.96,West,269,2.0,5.0,-999,-99.99,,,-99.99,,2013-05-30 07:42:00,
2013-05-30 00:52:00,58.0,-99.9,29.96,NNW,333,6.0,8.0,-999,-99.99,,,-99.99,,2013-05-30 07:52:00,
2013-05-30 01:02:00,58.0,-99.9,29.95,NNW,345,9.0,11.0,-999,-99.99,,,-99.99,,2013-05-30 08:02:00,
2013-05-30 01:11:00,58.0,-99.9,29.95,North,358,10.0,12.0,-999,-99.99,,,-99.99,,2013-05-30 08:11:00,
2013-05-30 01:22:00,57.0,-99.9,29.94,NNW,345,11.0,13.0,-999,-99.99,,,-99.99,,2013-05-30 08:22:00,
2013-05-30 01:32:00,57.0,-99.9,29.94,NNW,344,11.0,13.0,-999,-99.99,,,-99.99,,2013-05-30 08:32:00,
2013-05-30 01:42:00,57.0,-99.9,29.94,North,349,9.0,11.0,-999,-99.99,,,-99.99,,2013-05-30 08:42:00,
2013-05-30 01:53:00,57.0,-99.9,29.94,North,354,8.0,10.0,-999,-99.99,,,-99.99,,2013-05-30 08:53:00,
2013-05-30 02:11:00,57.0,-99.9,29.94,North,352,8.0,10.0,-999,-99.99,,,-99.99,,2013-05-30 09:11:00,
2013-05-30 02:22:00,57.0,-99.9,29.94,NW,316,4.0,6.0,-999,-99.99,,,-99.99,,2013-05-30 09:22:00,
2013-05-30 02:33:00,57.0,-99.9,29.94,North,350,6.0,7.0,-999,-99.99,,,-99.99,,2013-05-30 09:33:00,
2013-05-30 02:43:00,57.0,-99.9,29.94,North,3,3.0,6.0,-999,-99.99,,,-99.99,,2013-05-30 09:43:00,
2013-05-30 02:53:00,56.0,-99.9,29.95,South,169,5.0,7.0,-999,-99.99,,,-99.99,,2013-05-30 09:53:00,
2013-05-30 03:03:00,56.0,-99.9,29.94,SSE,163,6.0,8.0,-999,-99.99,,,-99.99,,2013-05-30 10:03:00,
2013-05-30 03:13:00,56.0,-99.9,29.94,SSE,160,4.0,7.0,-999,-99.99,,,-99.99,,2013-05-30 10:13:00,
2013-05-30 03:33:00,56.0,-99.9,29.94,SW,220,1.0,5.0,-999,-99.99,,,-99.99,,2013-05-30 10:33:00,
2013-05-30 03:42:00,56.0,-99.9,29.94,SSW,193,2.0,4.0,-999,-99.99,,,-99.99,,2013-05-30 10:42:00,
2013-05-30 03:52:00,56.0,-99.9,29.94,South,172,4.0,6.0,-999,-99.99,,,-99.99,,2013-05-30 10:52:00,
2013-05-30 04:03:00,56.0,-99.9,29.94,South,171,3.0,5.0,-999,-99.99,,,-99.99,,2013-05-30 11:03:00,
2013-05-30 04:22:00,55.0,-99.9,29.95,SSW,200,5.0,6.0,-999,-99.99,,,-99.99,,2013-05-30 11:22:00,
2013-05-30 04:32:00,55.0,-99.9,29.95,SSW,201,0.0,3.0,-999,-99.99,,,-99.99,,2013-05-30 11:32:00,
2013-05-30 04:52:00,55.0,-99.9,29.95,SSE,159,2.0,3.0,-999,-99.99,,,-99.99,,2013-05-30 11:52:00,
2013-05-30 05:02:00,55.0,-99.9,29.95,SSE,157,1.0,3.0,-999,-99.99,,,-99.99,,2013-05-30 12:02:00,
2013-05-30 05:11:00,55.0,-99.9,29.95,SSE,157,1.0,3.0,-999,-99.99,,,-99.99,,2013-05-30 12:11:00,
2013-05-30 05:32:00,55.0,-99.9,29.96,ENE,76,2.0,4.0,-999,-99.99,,,-99.99,,2013-05-30 12:32:00,
2013-05-30 05:42:00,54.0,-99.9,29.95,NE,38,1.0,2.0,-999,-99.99,,,-99.99,,2013-05-30 12:42:00,
2013-05-30 05:52:00,55.0,-99.9,29.96,NNE,31,2.0,3.0,-999,-99.99,,,-99.99,,2013-05-30 12:52:00,
2013-05-30 06:01:00,55.0,-99.9,29.96,ESE,102,2.0,4.0,-999,-99.99,,,-99.99,,2013-05-30 13:01:00,
2013-05-30 06:11:00,54.0,-99.9,29.95,WSW,246,2.0,5.0,-999,-99.99,,,-99.99,,2013-05-30 13:11:00,
2013-05-30 06:22:00,54.0,-99.9,29.96,WSW,251,2.0,3.0,-999,-99.99,,,-99.99,,2013-05-30 13:22:00,
2013-05-30 06:32:00,54.0,-99.9,29.96,NNW,328,0.0,2.0,-999,-99.99,,,-99.99,,2013-05-30 13:32:00,
2013-05-30 06:42:00,55.0,-99.9,29.96,SSW,205,2.0,3.0,-999,-99.99,,,-99.99,,2013-05-30 13:42:00,
2013-05-30 06:52:00,55.0,-99.9,29.97,SW,230,2.0,3.0,-999,-99.99,,,-99.99,,2013-05-30 13:52:00,
2013-05-30 07:12:00,55.0,-99.9,29.98,NW,317,2.0,3.0,-999,-99.99,,,-99.99,,2013-05-30 14:12:00,
2013-05-30 07:22:00,56.0,-99.9,29.98,SSE,162,1.0,3.0,-999,-99.99,,,-99.99,,2013-05-30 14:22:00,
2013-05-30 07:32:00,55.0,-99.9,29.98,SSE,153,3.0,4.0,-999,-99.99,,,-99.99,,2013-05-30 14:32:00,
2013-05-30 07:52:00,56.0,-99.9,29.98,NE,40,2.0,3.0,-999,-99.99,,,-99.99,,2013-05-30 14:52:00,
2013-05-30 08:01:00,57.0,-99.9,29.98,NE,40,0.0,3.0,-999,-99.99,,,-99.99,,2013-05-30 15:01:00,
2013-05-30 08:33:00,56.0,-99.9,29.99,South,170,3.0,4.0,-999,-99.99,,,-99.99,,2013-05-30 15:33:00,
2013-05-30 08:43:00,56.0,-99.9,29.99,South,179,4.0,5.0,-999,-99.99,,,-99.99,,2013-05-30 15:43:00,
2013-05-30 08:53:00,56.0,-99.9,29.99,South,174,4.0,6.0,-999,-99.99,,,-99.99,,2013-05-30 15:53:00,
2013-05-30 09:03:00,56.0,-99.9,29.99,South,176,3.0,6.0,-999,-99.99,,,-99.99,,2013-05-30 16:03:00,
2013-05-30 09:13:00,56.0,-99.9,29.99,South,189,3.0,4.0,-999,-99.99,,,-99.99,,2013-05-30 16:13:00,
2013-05-30 09:23:00,56.0,-99.9,30.00,South,177,4.0,6.0,-999,-99.99,,,-99.99,,2013-05-30 16:23:00,
2013-05-30 09:33:00,57.0,-99.9,30.00,South,176,3.0,6.0,-999,-99.99,,,-99.99,,2013-05-30 16:33:00,
2013-05-30 09:53:00,57.0,-99.9,30.00,SSE,162,5.0,6.0,-999,-99.99,,,-99.99,,2013-05-30 16:53:00,
2013-05-30 10:03:00,57.0,-99.9,30.00,SSE,167,4.0,6.0,-999,-99.99,,,-99.99,,2013-05-30 17:03:00,
2013-05-30 10:12:00,57.0,-99.9,30.00,SSE,159,4.0,6.0,-999,-99.99,,,-99.99,,2013-05-30 17:12:00,
2013-05-30 10:22:00,58.0,-99.9,30.00,SSE,155,5.0,8.0,-999,-99.99,,,-99.99,,2013-05-30 17:22:00,
2013-05-30 10:42:00,57.0,-99.9,30.00,South,173,6.0,10.0,-999,-99.99,,,-99.99,,2013-05-30 17:42:00,
2013-05-30 10:52:00,57.0,-99.9,30.00,SSE,165,7.0,10.0,-999,-99.99,,,-99.99,,2013-05-30 17:52:00,
2013-05-30 11:11:00,58.0,-99.9,29.99,South,169,7.0,10.0,-999,-99.99,,,-99.99,,2013-05-30 18:11:00,
2013-05-30 11:22:00,58.0,-99.9,29.99,SSE,167,8.0,11.0,-999,-99.99,,,-99.99,,2013-05-30 18:22:00,
2013-05-30 11:32:00,59.0,-99.9,29.99,South,173,7.0,10.0,-999,-99.99,,,-99.99,,2013-05-30 18:32:00,
2013-05-30 11:43:00,59.0,-99.9,29.99,South,172,7.0,10.0,-999,-99.99,,,-99.99,,2013-05-30 18:43:00,
2013-05-30 11:52:00,59.0,-99.9,29.99,South,171,8.0,11.0,-999,-99.99,,,-99.99,,2013-05-30 18:52:00,
2013-05-30 12:02:00,59.0,-99.9,29.99,SSE,168,9.0,12.0,-999,-99.99,,,-99.99,,2013-05-30 19:02:00,
2013-05-30 12:12:00,59.0,-99.9,29.99,SSE,164,9.0,11.0,-999,-99.99,,,-99.99,,2013-05-30 19:12:00,
2013-05-30 12:32:00,60.0,-99.9,29.99,SSE,166,9.0,12.0,-999,-99.99,,,-99.99,,2013-05-30 19:32:00,
2013-05-30 12:42:00,60.0,-99.9,29.99,SSE,167,9.0,11.0,-999,-99.99,,,-99.99,,2013-05-30 19:42:00,
2013-05-30 12:53:00,61.0,-99.9,29.99,SSE,166,9.0,12.0,-999,-99.99,,,-99.99,,2013-05-30 19:53:00,
2013-05-30 13:02:00,61.0,-99.9,29.99,SSE,168,9.0,11.0,-999,-99.99,,,-99.99,,2013-05-30 20:02:00,
2013-05-30 13:11:00,61.0,-99.9,29.99,SSE,165,10.0,12.0,-999,-99.99,,,-99.99,,2013-05-30 20:11:00,
2013-05-30 13:23:00,62.0,-99.9,29.98,SSE,165,10.0,12.0,-999,-99.99,,,-99.99,,2013-05-30 20:23:00,
2013-05-30 13:33:00,62.0,-99.9,29.98,SSE,166,10.0,12.0,-999,-99.99,,,-99.99,,2013-05-30 20:33:00,
2013-05-30 13:42:00,62.0,-99.9,29.98,SSE,166,9.0,11.0,-999,-99.99,,,-99.99,,2013-05-30 20:42:00,
2013-05-30 13:52:00,63.0,-99.9,29.98,South,170,9.0,11.0,-999,-99.99,,,-99.99,,2013-05-30 20:52:00,
2013-05-30 14:01:00,63.0,-99.9,29.98,SSE,168,8.0,11.0,-999,-99.99,,,-99.99,,2013-05-30 21:01:00,
2013-05-30 14:11:00,63.0,-99.9,29.98,SSE,168,8.0,11.0,-999,-99.99,,,-99.99,,2013-05-30 21:11:00,
2013-05-30 14:22:00,64.0,-99.9,29.98,South,169,9.0,11.0,-999,-99.99,,,-99.99,,2013-05-30 21:22:00,
2013-05-30 14:33:00,64.0,-99.9,29.98,SSE,165,9.0,12.0,-999,-99.99,,,-99.99,,2013-05-30 21:33:00,
2013-05-30 14:43:00,63.0,-99.9,29.98,SSE,164,9.0,11.0,-999,-99.99,,,-99.99,,2013-05-30 21:43:00,
2013-05-30 14:53:00,63.0,-99.9,29.97,SSE,162,10.0,12.0,-999,-99.99,,,-99.99,,2013-05-30 21:53:00,
2013-05-30 15:03:00,64.0,-99.9,29.97,SSE,151,5.0,9.0,-999,-99.99,,,-99.99,,2013-05-30 22:03:00,
2013-05-30 15:12:00,62.0,-99.9,29.97,SSE,161,9.0,11.0,-999,-99.99,,,-99.99,,2013-05-30 22:12:00,
2013-05-30 15:23:00,62.0,-99.9,29.96,SSE,165,10.0,13.0,-999,-99.99,,,-99.99,,2013-05-30 22:23:00,
2013-05-30 15:42:00,62.0,-99.9,29.96,SSE,162,10.0,12.0,-999,-99.99,,,-99.99,,2013-05-30 22:42:00,
2013-05-30 15:52:00,64.0,-99.9,29.96,SSE,167,9.0,12.0,-999,-99.99,,,-99.99,,2013-05-30 22:52:00,
2013-05-30 16:02:00,64.0,-99.9,29.96,South,172,7.0,10.0,-999,-99.99,,,-99.99,,2013-05-30 23:02:00,
2013-05-30 16:12:00,65.0,-99.9,29.96,South,174,6.0,11.0,-999,-99.99,,,-99.99,,2013-05-30 23:12:00,
2013-05-30 16:22:00,65.0,-99.9,29.96,SSE,151,4.0,8.0,-999,-99.99,,,-99.99,,2013-05-30 23:22:00,
2013-05-30 16:32:00,65.0,-99.9,29.96,SSE,160,4.0,7.0,-999,-99.99,,,-99.99,,2013-05-30 23:32:00,
2013-05-30 16:42:00,65.0,-99.9,29.96,WNW,286,1.0,4.0,-999,-99.99,,,-99.99,,2013-05-30 23:42:00,
2013-05-30 16:52:00,67.0,-99.9,29.96,NE,39,1.0,2.0,-999,-99.99,,,-99.99,,2013-05-30 23:52:00,
2013-05-30 17:01:00,64.0,-99.9,29.96,East,94,4.0,6.0,-999,-99.99,,,-99.99,,2013-05-31 00:01:00,
2013-05-30 17:11:00,69.0,-99.9,29.95,NNE,14,2.0,4.0,-999,-99.99,,,-99.99,,2013-05-31 00:11:00,
2013-05-30 17:22:00,68.0,-99.9,29.95,NW,314,6.0,9.0,-999,-99.99,,,-99.99,,2013-05-31 00:22:00,
2013-05-30 17:32:00,69.0,-99.9,29.95,WNW,283,1.0,6.0,-999,-99.99,,,-99.99,,2013-05-31 00:32:00,
2013-05-30 17:42:00,69.0,-99.9,29.95,North,359,1.0,3.0,-999,-99.99,,,-99.99,,2013-05-31 00:42:00,
2013-05-30 17:52:00,68.0,-99.9,29.95,ESE,121,3.0,5.0,-999,-99.99,,,-99.99,,2013-05-31 00:52:00,
2013-05-30 18:01:00,68.0,-99.9,29.95,NNW,340,5.0,8.0,-999,-99.99,,,-99.99,,2013-05-31 01:01:00,
2013-05-30 18:12:00,68.0,-99.9,29.95,SW,233,3.0,6.0,-999,-99.99,,,-99.99,,2013-05-31 01:12:00,
2013-05-30 18:21:00,68.0,-99.9,29.95,SSW,213,3.0,8.0,-999,-99.99,,,-99.99,,2013-05-31 01:21:00,
2013-05-30 18:32:00,67.0,-99.9,29.94,West,272,5.0,7.0,-999,-99.99,,,-99.99,,2013-05-31 01:32:00,
2013-05-30 18:42:00,67.0,-99.9,29.94,NW,318,14.0,18.0,-999,-99.99,,,-99.99,,2013-05-31 01:42:00,
2013-05-30 18:52:00,66.0,-99.9,29.94,NNW,333,9.0,14.0,-999,-99.99,,,-99.99,,2013-05-31 01:52:00,
2013-05-30 19:02:00,66.0,-99.9,29.94,NW,324,11.0,13.0,-999,-99.99,,,-99.99,,2013-05-31 02:02:00,
2013-05-30 19:11:00,65.0,-99.9,29.95,NNW,338,9.0,11.0,-999,-99.99,,,-99.99,,2013-05-31 02:11:00,
2013-05-30 19:22:00,65.0,-99.9,29.95,NNW,329,12.0,15.0,-999,-99.99,,,-99.99,,2013-05-31 02:22:00,
2013-05-30 19:32:00,65.0,-99.9,29.95,NNW,328,13.0,17.0,-999,-99.99,,,-99.99,,2013-05-31 02:32:00,
2013-05-30 19:42:00,65.0,-99.9,29.95,NW,319,13.0,16.0,-999,-99.99,,,-99.99,,2013-05-31 02:42:00,
2013-05-30 19:52:00,64.0,-99.9,29.96,NW,321,11.0,15.0,-999,-99.99,,,-99.99,,2013-05-31 02:52:00,
2013-05-30 20:01:00,64.0,-99.9,29.96,NW,319,6.0,12.0,-999,-99.99,,,-99.99,,2013-05-31 03:01:00,
2013-05-30 20:11:00,64.0,-99.9,29.96,NW,319,6.0,12.0,-999,-99.99,,,-99.99,,2013-05-31 03:11:00,
2013-05-30 20:22:00,64.0,-99.9,29.96,WNW,292,5.0,7.0,-999,-99.99,,,-99.99,,2013-05-31 03:22:00,
2013-05-30 20:33:00,64.0,-99.9,29.96,WNW,301,5.0,7.0,-999,-99.99,,,-99.99,,2013-05-31 03:33:00,
2013-05-30 20:43:00,62.0,-99.9,29.96,SSW,195,3.0,7.0,-999,-99.99,,,-99.99,,2013-05-31 03:43:00,
2013-05-30 20:53:00,62.0,-99.9,29.96,South,178,3.0,6.0,-999,-99.99,,,-99.99,,2013-05-31 03:53:00,
2013-05-30 21:03:00,62.0,-99.9,29.96,West,281,3.0,6.0,-999,-99.99,,,-99.99,,2013-05-31 04:03:00,
2013-05-30 21:12:00,63.0,-99.9,29.96,SSE,156,2.0,3.0,-999,-99.99,,,-99.99,,2013-05-31 04:12:00,
2013-05-30 21:33:00,61.0,-99.9,29.96,SSW,192,1.0,3.0,-999,-99.99,,,-99.99,,2013-05-31 04:33:00,
2013-05-30 21:43:00,61.0,-99.9,29.97,SW,220,1.0,2.0,-999,-99.99,,,-99.99,,2013-05-31 04:43:00,
2013-05-30 21:53:00,61.0,-99.9,29.97,WNW,301,2.0,3.0,-999,-99.99,,,-99.99,,2013-05-31 04:53:00,
2013-05-30 22:02:00,61.0,-99.9,29.97,North,358,3.0,4.0,-999,-99.99,,,-99.99,,2013-05-31 05:02:00,
2013-05-30 22:12:00,61.0,-99.9,29.98,NNW,341,3.0,4.0,-999,-99.99,,,-99.99,,2013-05-31 05:12:00,
2013-05-30 22:22:00,62.0,-99.9,29.98,NNW,334,2.0,3.0,-999,-99.99,,,-99.99,,2013-05-31 05:22:00,
2013-05-30 22:32:00,62.0,-99.9,29.98,SW,224,1.0,3.0,-999,-99.99,,,-99.99,,2013-05-31 05:32:00,
2013-05-30 22:42:00,62.0,-99.9,29.98,South,175,0.0,3.0,-999,-99.99,,,-99.99,,2013-05-31 05:42:00,
2013-05-30 23:02:00,61.0,-99.9,29.99,SSE,162,2.0,3.0,-999,-99.99,,,-99.99,,2013-05-31 06:02:00,
2013-05-30 23:12:00,60.0,-99.9,29.99,SSE,154,3.0,4.0,-999,-99.99,,,-99.99,,2013-05-31 06:12:00,
2013-05-30 23:22:00,59.0,-99.9,29.99,SSE,159,3.0,4.0,-999,-99.99,,,-99.99,,2013-05-31 06:22:00,
2013-05-30 23:32:00,59.0,-99.9,29.99,SSE,160,2.0,4.0,-999,-99.99,,,-99.99,,2013-05-31 06:32:00,